N1OTX Weather Reports


time (UTC)temp
F
wind
direction
speed
knots
gust
knots
rain 1hr
in
rain 24hr
in
rain mn
in
humidity
%
barometer
mb
20260902215040 69 110 3.5 8.7 0.00 0.00 0.00 71 1020.5
20260902214522 69 96 3.5 7.8 0.00 0.00 0.00 72 1020.5
20260902214022 69 102 3.5 8.7 0.00 0.00 0.00 71 1020.3
20260902213602 69 108 3.5 9.6 0.00 0.00 0.00 70 1020.3
20260902213021 69 109 4.3 9.6 0.00 0.00 0.00 70 1020.1
20260902212521 70 121 5.2 18.2 0.00 0.00 0.00 69 1020.1
20260902212021 70 110 5.2 18.2 0.00 0.00 0.00 70 1020.0
20260902211520 70 126 4.3 13.0 0.00 0.00 0.00 69 1020.1
20260902211020 70 106 3.5 8.7 0.00 0.00 0.00 70 1020.1
20260902210522 70 109 2.6 8.7 0.00 0.00 0.00 70 1020.3
20260902210021 70 83 5.2 9.6 0.00 0.00 0.00 69 1020.3
20260902205522 70 92 5.2 11.3 0.00 0.00 0.00 69 1020.4
20260902205021 70 113 5.2 13.0 0.00 0.00 0.00 70 1020.5
20260902204602 70 114 4.3 13.0 0.00 0.01 0.00 71 1020.7
20260902204021 70 104 4.3 8.7 0.00 0.01 0.00 71 1020.7
20260902203520 70 132 4.3 9.6 0.00 0.01 0.00 70 1020.8
20260902203040 70 108 3.5 9.6 0.00 0.01 0.00 70 1020.9
20260902202520 70 92 4.3 9.6 0.00 0.01 0.00 70 1020.9
20260902202022 70 85 4.3 12.2 0.00 0.02 0.00 68 1021.0
20260902201540 70 106 4.3 11.3 0.00 0.02 0.00 69 1021.1
20260902201021 70 97 5.2 9.6 0.00 0.02 0.00 69 1021.0
20260902200521 70 104 4.3 8.7 0.00 0.02 0.00 70 1021.1
20260902200020 71 97 2.6 7.8 0.00 0.02 0.00 69 1021.0
20260902195521 71 95 3.5 7.8 0.00 0.02 0.00 68 1020.9
20260902195020 71 96 4.3 9.6 0.00 0.02 0.00 66 1021.0
20260902194520 71 88 3.5 9.6 0.00 0.02 0.00 66 1021.0
20260902194020 71 120 3.5 9.6 0.00 0.02 0.00 65 1021.0
20260902193541 71 106 3.5 9.6 0.00 0.03 0.00 63 1021.1
20260902193026 71 111 3.5 9.6 0.00 0.04 0.00 63 1021.0
20260902192521 71 104 4.3 9.6 0.00 0.04 0.00 62 1021.0
20260902192021 72 100 4.3 9.6 0.00 0.05 0.00 62 1021.0
20260902191545 72 86 4.3 11.3 0.00 0.05 0.00 59 1021.2
20260902191020 72 110 3.5 9.6 0.00 0.06 0.00 60 1021.3
20260902190522 72 135 3.5 8.7 0.00 0.07 0.00 59 1021.3
20260902190021 72 100 3.5 7.8 0.00 0.08 0.00 59 1021.3
20260902185521 72 101 3.5 11.3 0.00 0.11 0.00 58 1021.3
20260902185021 72 87 4.3 8.7 0.00 0.14 0.00 57 1021.2
20260902184521 73 85 3.5 7.8 0.00 0.16 0.00 58 1021.1
20260902184021 73 84 3.5 11.3 0.00 0.18 0.00 60 1021.2
20260902183520 73 92 3.5 11.3 0.00 0.19 0.00 59 1021.1
20260902183044 73 131 5.2 9.6 0.00 0.20 0.00 56 1021.0
20260902182520 72 134 3.5 9.6 0.00 0.21 0.00 58 1021.1
20260902182020 72 91 3.5 9.6 0.00 0.22 0.00 59 1021.1
20260902181520 72 113 4.3 9.6 0.00 0.23 0.00 58 1021.2
20260902181022 72 88 5.2 12.2 0.00 0.25 0.00 58 1021.1
20260902180522 72 92 4.3 12.2 0.00 0.28 0.00 56 1021.1
20260902180021 72 104 6.1 13.0 0.00 0.29 0.00 57 1021.2
20260902175521 72 120 3.5 9.6 0.00 0.31 0.00 58 1021.2
20260902175021 72 91 3.5 7.8 0.00 0.34 0.00 59 1021.2
20260902174521 72 104 4.3 11.3 0.00 0.37 0.00 59 1021.3
20260902174021 73 102 5.2 12.2 0.00 0.39 0.00 57 1021.3
20260902173520 73 89 5.2 11.3 0.00 0.41 0.00 59 1021.2
20260902173022 74 117 3.5 7.0 0.00 0.42 0.00 57 1021.2
20260902172522 74 127 2.6 6.1 0.00 0.43 0.00 60 1021.2
20260902172021 74 114 2.6 7.0 0.00 0.43 0.00 60 1021.3
20260902171519 74 119 4.3 9.6 0.00 0.44 0.00 59 1021.4
20260902171021 74 161 3.5 7.8 0.00 0.45 0.00 58 1021.4
20260902170521 74 126 4.3 11.3 0.00 0.47 0.00 59 1021.4
20260902170040 74 137 3.5 8.7 0.00 0.48 0.00 63 1021.5
20260902165520 73 140 3.5 9.6 0.00 0.48 0.00 63 1021.6
20260902165020 73 102 4.3 9.6 0.00 0.48 0.00 63 1021.6
20260902164522 73 93 1.7 9.6 0.00 0.48 0.00 64 1021.6
20260902164042 73 81 3.5 8.7 0.00 0.48 0.00 68 1021.6
20260902163541 73 102 3.5 8.7 0.00 0.48 0.00 65 1021.8
20260902163021 72 103 2.6 7.8 0.00 0.48 0.00 67 1021.7
20260902162521 72 95 2.6 7.0 0.00 0.48 0.00 67 1021.7
20260902162021 72 101 3.5 8.7 0.00 0.48 0.00 68 1021.8
20260902161520 72 136 2.6 6.1 0.00 0.48 0.00 69 1021.7
20260902161040 72 150 3.5 7.8 0.00 0.48 0.00 68 1021.8
20260902160605 72 143 4.3 7.8 0.00 0.48 0.00 68 1021.8
20260902160020 71 137 4.3 7.8 0.00 0.48 0.00 70 1021.9
20260902155519 71 135 2.6 6.1 0.00 0.48 0.00 73 1021.9
20260902155019 71 104 3.5 7.0 0.00 0.48 0.00 73 1022.0
20260902154521 71 86 3.5 7.8 0.00 0.48 0.00 72 1022.1
20260902154021 71 102 2.6 7.0 0.00 0.48 0.00 72 1022.2
20260902153541 71 110 2.6 6.1 0.00 0.48 0.00 73 1022.3
20260902153020 70 110 3.5 7.0 0.00 0.48 0.00 74 1022.4
20260902152520 70 124 3.5 6.1 0.00 0.48 0.00 74 1022.3
20260902152020 70 107 3.5 7.0 0.00 0.48 0.00 76 1022.3
20260902151519 70 136 2.6 7.0 0.00 0.48 0.00 78 1022.4
20260902151019 70 82 2.6 7.0 0.00 0.48 0.00 77 1022.3
20260902150521 70 81 2.6 6.1 0.00 0.48 0.00 78 1022.4
20260902150021 70 68 2.6 7.0 0.00 0.48 0.00 78 1022.2
20260902145521 70 118 2.6 7.0 0.00 0.48 0.00 78 1022.3
20260902145046 70 97 2.6 7.0 0.00 0.48 0.00 79 1022.1
20260902144520 70 114 2.6 7.8 0.00 0.48 0.00 80 1022.1
20260902144020 69 119 2.6 8.7 0.00 0.48 0.00 81 1022.0
20260902143519 69 99 2.6 8.7 0.00 0.48 0.00 82 1022.0
20260902143019 69 92 1.7 7.8 0.00 0.48 0.00 82 1022.0
20260902142521 69 129 3.5 7.8 0.00 0.48 0.00 82 1022.1
20260902142021 69 115 3.5 8.7 0.00 0.48 0.00 82 1021.7
20260902141519 69 118 3.5 8.7 0.00 0.48 0.00 83 1021.7
20260902141020 68 105 4.3 8.7 0.00 0.48 0.00 85 1021.6
20260902140520 68 102 3.5 9.6 0.00 0.48 0.00 85 1021.6
20260902140020 68 111 3.5 9.6 0.00 0.48 0.00 87 1021.5
20260902135520 68 117 2.6 8.7 0.00 0.48 0.00 88 1021.5
20260902135020 68 88 2.6 11.3 0.00 0.48 0.00 90 1021.4
20260902134519 67 98 2.6 7.8 0.00 0.48 0.00 92 1021.4
20260902134026 67 101 2.6 6.1 0.00 0.48 0.00 92 1021.3
20260902133541 67 107 3.5 6.1 0.00 0.48 0.00 93 1021.3
20260902133021 67 81 2.6 6.1 0.00 0.49 0.00 96 1021.3
20260902132540 66 93 0.9 2.6 0.00 0.50 0.00 98 1021.3
20260902132041 66 79 0.9 1.7 0.00 0.50 0.00 98 1021.3
20260902131540 65 104 0.9 1.7 0.00 0.51 0.00 99 1021.5
20260902131020 65 88 0.9 2.6 0.00 0.52 0.00 99 1021.5
20260902130520 65 0.0 0.0 0.00 0.52 0.00 99 1021.6
20260902130019 64 340 0.0 1.7 0.00 0.53 0.00 99 1021.6
20260902125521 64 289 0.0 1.7 0.00 0.54 0.00 99 1021.6
20260902125021 64 186 0.0 0.9 0.00 0.55 0.00 99 1021.6
20260902124520 64 0.0 0.0 0.00 0.56 0.00 99 1021.8
20260902124020 64 186 0.0 0.9 0.00 0.57 0.00 99 1021.8
20260902123520 64 187 0.0 0.9 0.00 0.59 0.00 99 1021.8
20260902123022 63 0.0 0.0 0.00 0.60 0.00 99 1021.7
20260902122540 63 0.0 0.0 0.00 0.61 0.00 99 1021.7
20260902122020 63 0.0 0.0 0.00 0.61 0.00 99 1021.9
20260902121519 63 0.0 0.0 0.00 0.61 0.00 99 1021.9
20260902121039 63 0.0 0.0 0.00 0.61 0.00 99 1021.9
20260902120521 63 0.0 0.0 0.00 0.61 0.00 99 1022.0
20260902120041 62 0.0 0.0 0.00 0.61 0.00 99 1021.9
20260902115519 62 0.0 0.0 0.00 0.61 0.00 99 1021.9
20260902115021 62 0.0 0.0 0.00 0.61 0.00 99 1022.0
20260902114521 62 186 0.0 0.9 0.00 0.61 0.00 99 1022.0
20260902114020 62 0.0 0.0 0.00 0.61 0.00 99 1022.0
20260902113522 62 0.0 0.0 0.00 0.61 0.00 99 1022.0
20260902113020 62 0.0 0.0 0.00 0.61 0.00 99 1021.9
20260902112540 62 0.0 0.0 0.00 0.61 0.00 99 1021.8
20260902112019 62 0.0 0.0 0.00 0.61 0.00 99 1021.9
20260902111539 61 0.0 0.0 0.00 0.61 0.00 99 1021.8
20260902111019 61 0.0 0.0 0.00 0.61 0.00 99 1021.7
20260902110519 61 0.0 0.0 0.00 0.61 0.00 99 1021.7
20260902110039 61 0.0 0.0 0.00 0.61 0.00 99 1021.4
20260902105539 61 0.0 0.0 0.00 0.61 0.00 99 1021.4
20260902105020 61 0.0 0.0 0.00 0.61 0.00 99 1021.3
20260902104520 61 0.0 0.0 0.00 0.61 0.00 99 1021.3
20260902104020 61 0.0 0.0 0.00 0.61 0.00 99 1021.2
20260902103519 61 0.0 0.0 0.00 0.61 0.00 99 1021.3
20260902103019 61 0.0 0.0 0.00 0.61 0.00 99 1021.3
20260902102519 61 0.0 0.0 0.00 0.61 0.00 99 1021.2
20260902102019 61 0.0 0.0 0.00 0.61 0.00 99 1021.1
20260902101518 61 0.0 0.0 0.00 0.61 0.00 99 1021.1
20260902101020 61 0.0 0.0 0.00 0.61 0.00 99 1021.0
20260902100601 60 0.0 0.0 0.00 0.61 0.00 99 1020.9
20260902100019 60 0.0 0.0 0.00 0.61 0.00 99 1020.9
20260902095519 61 0.0 0.0 0.00 0.61 0.00 99 1020.9
20260902095019 60 0.0 0.0 0.00 0.61 0.00 99 1020.9
20260902094524 60 0.0 0.0 0.00 0.61 0.00 99 1020.8
20260902094021 60 0.0 0.0 0.00 0.61 0.00 99 1020.6
20260902093601 60 0.0 0.0 0.00 0.61 0.00 99 1020.7
20260902093021 60 0.0 0.0 0.00 0.61 0.00 99 1020.6
20260902092520 60 0.0 0.0 0.00 0.61 0.00 99 1020.5
20260902092020 60 0.0 0.0 0.00 0.61 0.00 99 1020.5
20260902091519 60 0.0 0.0 0.00 0.61 0.00 99 1020.7
20260902091019 60 0.0 0.0 0.00 0.61 0.00 99 1020.8
20260902090519 60 0.0 0.0 0.00 0.61 0.00 99 1020.5
20260902090021 60 0.0 0.0 0.00 0.61 0.00 99 1020.5
20260902085521 61 0.0 0.0 0.00 0.61 0.00 99 1020.6
20260902085020 61 0.0 0.0 0.00 0.61 0.00 99 1020.5
20260902084541 61 0.0 0.0 0.00 0.61 0.00 99 1020.4
20260902084020 61 0.0 0.0 0.00 0.61 0.00 99 1020.4
20260902083520 61 186 0.0 0.9 0.00 0.61 0.00 99 1020.4
20260902083019 61 0.0 0.0 0.00 0.61 0.00 99 1020.3
20260902082519 61 0.0 0.0 0.00 0.61 0.00 99 1020.4
20260902082021 62 0.0 0.0 0.00 0.61 0.00 99 1020.5
20260902081519 62 0.0 0.0 0.00 0.61 0.00 99 1020.4
20260902081020 62 0.0 0.0 0.00 0.61 0.00 99 1020.4
20260902080520 62 0.0 0.0 0.00 0.61 0.00 99 1020.4
20260902080040 62 0.0 0.0 0.00 0.61 0.00 99 1020.4
20260902075520 62 0.0 0.0 0.00 0.61 0.00 99 1020.4
20260902075019 62 0.0 0.0 0.00 0.61 0.00 99 1020.4
20260902074519 62 0.0 0.0 0.00 0.61 0.00 99 1020.6
20260902074019 62 0.0 0.0 0.00 0.61 0.00 99 1020.7
20260902073521 62 0.0 0.0 0.00 0.61 0.00 99 1020.7
20260902073040 62 0.0 0.0 0.00 0.61 0.00 99 1020.6
20260902072520 62 0.0 0.0 0.00 0.61 0.00 99 1020.5
20260902072020 62 0.0 0.0 0.00 0.61 0.00 99 1020.5
20260902071520 62 0.0 0.0 0.00 0.61 0.00 99 1020.4
20260902071019 62 0.0 0.0 0.00 0.61 0.00 99 1020.3
20260902070519 62 0.0 0.0 0.00 0.61 0.00 99 1020.3
20260902070041 62 0.0 0.0 0.00 0.61 0.00 99 1020.2
20260902065520 62 0.0 0.0 0.00 0.61 0.00 99 1020.2
20260902065019 62 0.0 0.0 0.00 0.61 0.00 99 1020.3
20260902064524 62 0.0 0.0 0.00 0.61 0.00 99 1020.3
20260902064021 62 0.0 0.0 0.00 0.61 0.00 99 1020.3
20260902063521 62 0.0 0.0 0.00 0.61 0.00 99 1020.4
20260902063023 62 0.0 0.0 0.00 0.61 0.00 99 1020.4
20260902062521 62 0.0 0.0 0.00 0.61 0.00 99 1020.4
20260902062020 62 0.0 0.0 0.00 0.61 0.00 99 1020.3
20260902061520 62 0.0 0.0 0.00 0.61 0.00 99 1020.2
20260902061020 61 0.0 0.0 0.00 0.61 0.00 99 1020.3
20260902060520 61 0.0 0.0 0.00 0.61 0.00 99 1020.4
20260902060019 61 0.0 0.0 0.00 0.61 0.00 99 1020.5
20260902055519 61 0.0 0.0 0.00 0.61 0.00 99 1020.4
20260902055019 61 0.0 0.0 0.00 0.61 0.00 99 1020.2
20260902054519 61 0.0 0.0 0.00 0.61 0.00 99 1020.2
20260902054019 61 0.0 0.0 0.00 0.61 0.00 99 1020.3
20260902053519 61 0.0 0.0 0.00 0.61 0.00 99 1020.3
20260902053040 61 0.0 0.0 0.00 0.61 0.00 99 1020.1
20260902052520 61 0.0 0.0 0.00 0.61 0.00 99 1020.1
20260902052020 61 0.0 0.0 0.00 0.61 0.00 99 1020.2
20260902051519 61 0.0 0.0 0.00 0.61 0.00 99 1020.3
20260902051019 61 0.0 0.0 0.00 0.61 0.00 99 1020.2
20260902050521 61 0.0 0.0 0.00 0.61 0.00 99 1020.2
20260902050021 61 0.0 0.0 0.00 0.61 0.00 99 1020.2
20260902045541 61 0.0 0.0 0.00 0.61 0.00 99 1020.2
20260902045020 61 0.0 0.0 0.00 0.61 0.00 99 1020.0
20260902044520 61 0.0 0.0 0.00 0.61 0.00 99 1019.8
20260902044040 61 0.0 0.0 0.00 0.61 0.00 99 1019.9
20260902043520 61 0.0 0.0 0.00 0.61 0.00 99 1019.8
20260902043019 61 0.0 0.0 0.00 0.61 0.00 99 1019.7
20260902042519 61 0.0 0.0 0.00 0.61 0.00 99 1019.6
20260902042021 61 0.0 0.0 0.00 0.61 0.00 99 1019.5
20260902041518 61 0.0 0.0 0.00 0.61 0.00 99 1019.4
20260902041040 61 0.0 0.0 0.00 0.61 0.00 99 1019.2
20260902040520 61 0.0 0.0 0.00 0.61 0.00 99 1019.2
20260902040020 61 0.0 0.0 0.00 0.61 0.00 99 1019.1
20260902035520 61 0.0 0.0 0.00 0.61 0.61 99 1019.0
20260902035019 62 0.0 0.0 0.00 0.61 0.61 99 1018.9
20260902034519 62 0.0 0.0 0.00 0.61 0.61 99 1019.0
20260902034019 62 0.0 0.0 0.00 0.61 0.61 99 1019.1
20260902033519 62 0.0 0.0 0.00 0.61 0.61 99 1019.1
20260902033019 62 0.0 0.0 0.00 0.61 0.61 99 1019.0
20260902032520 62 0.0 0.0 0.00 0.61 0.61 99 1018.9
20260902032020 62 0.0 0.0 0.00 0.61 0.61 99 1018.9
20260902031540 62 0.0 0.0 0.00 0.61 0.61 99 1019.1
20260902031019 62 0.0 0.0 0.00 0.61 0.61 99 1019.0
20260902030519 62 0.0 0.0 0.00 0.61 0.61 99 1019.0
20260902030019 62 0.0 0.0 0.00 0.61 0.61 99 1019.1
20260902025519 62 0.0 0.0 0.00 0.61 0.61 99 1019.3
20260902025018 62 0.0 0.0 0.00 0.61 0.61 99 1019.2
20260902024540 62 0.0 0.0 0.00 0.61 0.61 99 1019.1
20260902024100 62 0.0 0.0 0.00 0.61 0.61 99 1019.1
20260902023540 62 186 0.0 0.9 0.00 0.61 0.61 99 1019.0
20260902023020 62 186 0.0 0.9 0.00 0.61 0.61 99 1019.0
20260902022519 62 0.0 0.0 0.00 0.61 0.61 99 1019.2
20260902022019 62 0.0 0.0 0.00 0.61 0.61 99 1019.1
20260902021540 62 0.0 0.0 0.00 0.61 0.61 99 1019.0
20260902021019 62 0.0 0.0 0.00 0.61 0.61 99 1019.2
20260902020518 62 0.0 0.0 0.00 0.61 0.61 99 1019.3
20260902020040 62 0.0 0.0 0.00 0.61 0.61 99 1019.2
20260902015520 62 0.0 0.0 0.00 0.61 0.61 99 1019.2
20260902015020 62 0.0 0.0 0.00 0.61 0.61 99 1019.2
20260902014519 62 0.0 0.0 0.00 0.61 0.61 99 1019.0
20260902014019 62 0.0 0.9 0.00 0.61 0.61 99 1018.9
20260902013519 62 0.0 0.9 0.00 0.61 0.61 99 1019.1
20260902013019 62 0.0 0.0 0.00 0.61 0.61 99 1019.1
20260902012539 62 0.0 0.0 0.00 0.61 0.61 99 1019.1
20260902012020 62 0.0 0.0 0.00 0.61 0.61 99 1019.0
20260902011520 62 0.0 0.0 0.00 0.61 0.61 99 1019.1
20260902011021 62 0.0 0.0 0.00 0.61 0.61 99 1019.1
20260902010519 62 0.0 0.0 0.00 0.61 0.61 99 1018.9
20260902010019 62 0.0 0.0 0.00 0.61 0.61 99 1018.8
20260902005521 62 0.0 0.0 0.00 0.61 0.61 99 1018.8
20260902005041 62 0.0 0.0 0.00 0.61 0.61 99 1018.9
20260902004521 62 0.0 0.0 0.00 0.61 0.61 99 1018.9
20260902004021 62 0.0 0.0 0.00 0.61 0.61 99 1018.7
20260902003520 62 0.0 0.0 0.00 0.61 0.61 99 1018.6
20260902003100 62 0.0 0.0 0.00 0.61 0.61 99 1018.6
20260902002520 62 0.0 0.0 0.00 0.61 0.61 99 1018.5
20260902002019 62 0.0 0.0 0.00 0.61 0.61 99 1018.4
20260902001519 63 0.0 0.0 0.00 0.61 0.61 99 1018.4
20260902001021 63 0.0 0.0 0.00 0.61 0.61 99 1018.4
20260902000541 63 187 0.0 0.9 0.00 0.61 0.61 99 1018.4
20260902000020 63 187 0.0 0.9 0.00 0.61 0.61 99 1018.4
20260901235520 63 0.0 0.0 0.00 0.61 0.61 99 1018.5
20260901235020 63 0.0 0.0 0.00 0.61 0.61 99 1018.6
20260901234520 63 0.0 0.0 0.00 0.61 0.61 99 1018.6
20260901234101 63 0.0 0.0 0.00 0.61 0.61 99 1018.7
20260901233524 63 0.0 0.0 0.00 0.61 0.61 99 1018.6
20260901233021 63 0.0 0.0 0.00 0.61 0.61 99 1018.6
20260901232521 63 0.0 0.0 0.00 0.61 0.61 99 1018.4
20260901232020 63 0.0 0.0 0.00 0.61 0.61 99 1018.4
20260901231520 63 0.0 0.0 0.00 0.61 0.61 98 1018.4
20260901231040 63 0.0 0.0 0.00 0.61 0.61 98 1018.4
20260901230520 63 0.0 0.0 0.00 0.61 0.61 98 1018.3
20260901230020 63 0.0 0.0 0.00 0.61 0.61 98 1018.2
20260901225520 63 0.0 0.0 0.00 0.61 0.61 98 1018.2
20260901225019 63 0.0 0.0 0.00 0.61 0.61 98 1018.2
20260901224559 63 0.0 0.0 0.00 0.61 0.61 98 1018.1
20260901224019 63 0.0 0.0 0.00 0.61 0.61 98 1018.1
20260901223520 63 0.0 0.0 0.00 0.61 0.61 97 1018.1
20260901223020 63 0.0 0.0 0.00 0.61 0.61 97 1018.3
20260901222520 63 0.0 0.0 0.00 0.61 0.61 97 1018.4
20260901222020 63 0.0 0.9 0.00 0.61 0.61 96 1018.3
20260901221519 64 186 0.0 1.7 0.00 0.61 0.61 95 1018.3
20260901221019 64 186 0.0 2.6 0.00 0.61 0.61 95 1018.2
20260901220521 64 177 0.0 2.6 0.00 0.61 0.61 95 1018.2
20260901220021 64 156 0.9 2.6 0.00 0.61 0.61 95 1018.2
20260901215520 64 189 0.9 3.5 0.00 0.61 0.61 94 1018.4